Home > Weather > Montfoort > Past weeks

Flag for Netherlands Past Weather in Montfoort, Netherlands — Yesterday and Last 2 Weeks

Now
65 °F

Overcast.


Feels Like: 65 °F
Forecast: 55 / 63 °F
Wind: 7 mph from Southwest

Location: De Bilt

Current Time: Jul 1, 2016 at 1:52:43 PM

Latest Report: Jul 1, 2016 at 12:00 PM


Visibility: 22 mi

Pressure: 29.87 "Hg

Humidity: 77%

Dew Point: 57 °F

Location of MontfoortLocation

Past Weather in Montfoort — Graph

°F

Montfoort Temperature Yesterday

Maximum temperature yesterday: 66 °F (at 7:00 PM)
Minimum temperature yesterday: 58 °F (at 12:00 AM)
Average temperature yesterday: 61 °F

High & Low Weather Summary for the Past Weeks

 TemperatureHumidityPressure
High82 °F (Jun 23, 5:00 PM)100% (Jun 18, 4:00 AM)30.26 "Hg (Jun 18, 4:00 AM)
Low49 °F (Jun 28, 5:00 AM)48% (Jun 16, 1:00 PM)29.58 "Hg (Jun 16, 7:00 PM)
Average62 °F84%29.98 "Hg
* Reported Jun 16 12:00 PM — Jul 1 12:00 PM, Montfoort, Weather by CustomWeather, © 2016

Note: Actual official high and low records may vary slightly from our data, if they occured in-between our weather recording intervals... More about our weather records

Advertising

Montfoort Weather History for the Previous 24 Hours

Scroll right to see more
 ConditionsComfort  
Time TempWeatherWind HumidityBarometerVisibility
12:00 PM
Fri, Jul 1
65 °FOvercast.7 mph77%29.87 "Hg22 mi
11:00 AM63 °FOvercast.7 mph81%29.86 "Hg19 mi
10:00 AM64 °FOvercast.7 mph81%29.85 "Hg25 mi
9:00 AM63 °FOvercast.6 mph87%29.85 "Hg15 mi
8:00 AM62 °FLow clouds.5 mph91%29.84 "Hg13 mi
7:00 AM62 °FOvercast.6 mph91%29.83 "Hg13 mi
6:00 AM61 °FRain showers. Overcast.7 mph92%29.84 "Hg7 mi
5:00 AM62 °FOvercast.6 mph86%29.83 "Hg16 mi
3:00 AM60 °FOvercast.3 mph86%29.84 "Hg15 mi
2:00 AM61 °FOvercast.3 mph85%29.85 "Hg16 mi
1:00 AM61 °FOvercast.5 mph88%29.86 "Hg12 mi
12:00 AM60 °FOvercast.2 mph89%29.87 "Hg14 mi
11:00 PM
Thu, Jun 30
60 °FOvercast.2 mph90%29.88 "Hg16 mi
10:00 PM62 °FOvercast.2 mph83%29.88 "Hg22 mi
9:00 PM64 °FOvercast.5 mph81%29.87 "Hg25 mi
8:00 PM65 °FOvercast.5 mph77%29.85 "Hg25 mi
7:00 PM66 °FOvercast.6 mph80%29.84 "Hg19 mi
5:00 PM64 °FOvercast.7 mph89%29.84 "Hg9 mi
4:00 PM63 °FRain showers. Low clouds.6 mph90%29.85 "Hg5 mi
3:00 PM62 °FLow clouds.5 mph91%29.86 "Hg16 mi
2:00 PM64 °FDrizzle. Overcast.5 mph86%29.86 "Hg11 mi
1:00 PM64 °FOvercast.6 mph79%29.86 "Hg15 mi
Weather by CustomWeather, © 2016

See weather overviewHow to use our weather pages